Location: New Canada
(47.1017°N, 68.5042°W)
Time: 07:44:59
(UTC+00:00)

EO-79 - Pass Details

Date: 03 April 2023
Orbit: 578 x 593 km, 98.0° (Epoch: 03 June)

Event Time Altitude Azimuth Distance (km) Brightness Sun altitude
Rises 07:41:31 0° 4° (N) 2,829 ? -23.8°
Reaches altitude 10° 07:43:54 10° 353° (N) 1,920 ? -23.5°
Enters shadow 07:46:27 25° 319° (NW) 1,195 ? -23.1°
